[[{"header":{"parameterUnit":"m.s-1","parameterCategory":1,"la1":30.2991,"la2":30.254,"lo1":-89.0895,"lo2":-89.0444,"dy":0.0017,"dx":0.0017,"nx":28,"ny":28,"refTime":"2025-12-26T09:00:00:Z","depth":0,"parameterNumber":2,"parameterNumberName":"U-component_of_WINDS"},"data":[0,0,0,0,0,0,0,0,0,0,0,0,0,0,0,0,0,0,0,0,0,0,0,0,0,0,0,0,0,0,0,0,0,0,0,0,0,0,0,0,0,0,0,0,0,0,0,0,0,0,0,0,0,0,0,0,0,0,1.0639,1.0639,0,1.0666,1.0666,1.0666,1.0648,1.0647,1.0647,1.0646,1.0675,1.0677,1.0678,0,0,0,0,0,0,0,0,0,0,0,0,0,1.0574,1.0576,1.0639,1.0639,1.0639,1.0666,1.0666,1.0666,1.0648,1.0647,1.0646,1.0645,1.0675,1.0677,1.0679,0,0,0,0,0,0,0,0,0,0,0,0,0,1.0602,1.0576,1.0639,1.0634,1.0633,1.0666,1.0666,1.0666,1.0649,1.0647,1.0646,1.0645,1.0674,1.0677,1.0679,1.0718,0,0,1.0686,1.0687,0,0,0,0,0,0,0,0,1.06,1.0604,1.0634,1.0634,1.0634,1.0652,1.0654,1.0684,1.0649,1.0643,1.0646,1.0644,1.0669,1.0672,1.0679,1.072,1.0721,1.0686,1.0688,1.0689,1.0689,0,0,0,0,0,0,0,1.0599,1.0603,1.0649,1.0635,1.0634,1.0631,1.0633,1.066,1.0663,1.0643,1.0642,1.0645,1.0669,1.0677,1.068,1.0721,1.0686,1.0688,1.069,1.0691,1.0796,1.0797,0,0,0,0,0,0,1.0597,1.0602,1.0649,1.065,1.0614,1.0633,1.0636,1.0648,1.0662,1.0663,1.0646,1.0644,1.0674,1.0677,1.0681,1.0729,1.0689,1.0691,1.0692,1.0795,1.0796,1.0798,0,0,0,0,0,0,1.0595,1.0601,1.0648,1.0626,1.0631,1.0635,1.0649,1.0649,1.0657,1.0665,1.0665,1.0655,1.0673,1.0678,1.0709,1.0729,1.0692,1.0694,1.0793,1.0795,1.0797,1.0824,0,0,0,0,0,0,1.0594,1.0601,1.0615,1.0626,1.0632,1.0675,1.065,1.065,1.0661,1.0659,1.0672,1.0673,1.0672,1.0706,1.0711,1.0732,1.0696,1.0791,1.0794,1.0797,1.0821,1.0827,1.0831,0,0,0,0,0,1.0591,1.0622,1.0616,1.0622,1.065,1.0676,1.068,1.0677,1.0663,1.0678,1.0683,1.0673,1.0726,1.0709,1.0715,1.0737,1.079,1.0793,1.0796,1.0819,1.0826,1.0831,0,0,0,0,0,0,1.0613,1.0623,1.0617,1.0651,1.0663,1.0673,1.0691,1.0684,1.07,1.0698,1.0695,1.0698,1.0731,1.0737,1.0718,1.0776,1.0756,1.0761,1.0771,1.0777,1.0782,1.078,1.0698,0,0,0,0,0,1.0622,1.0641,1.0649,1.0679,1.0685,1.0687,1.0698,1.0695,1.0707,1.0712,1.0719,1.0732,1.0752,1.0765,1.0783,1.0822,1.0825,1.084,1.0845,1.0849,1.0853,1.0875,1.0882,1.0808,1.0808,1.0808,0,0,1.0641,1.0648,1.0661,1.0683,1.0692,1.0713,1.0691,1.0714,1.073,1.0716,1.0746,1.0752,1.0766,1.0801,1.0817,1.0808,1.0874,1.0853,1.0856,1.0858,1.0879,1.0886,1.0892,1.081,1.081,1.081,0,0,1.0685,1.0692,1.0719,1.0728,1.0741,1.0742,1.0749,1.076,1.0763,1.0793,1.0783,1.0802,1.0836,1.0847,1.0857,1.0906,1.0898,1.0912,1.0939,1.096,1.0966,1.0971,1.099,1.0996,1.0916,1.0916,1.0916,0,1.0707,1.0737,1.0733,1.0757,1.0767,1.0756,1.0783,1.0792,1.0811,1.0819,1.0807,1.085,1.0858,1.0897,1.0909,1.0917,1.0925,1.0911,1.0965,1.097,1.0975,1.0993,1.1,1.0918,1.0918,1.0918,1.0917,0,1.0763,1.0784,1.0804,1.0822,1.0835,1.086,1.0861,1.0875,1.0871,1.0874,1.0906,1.0916,1.0936,1.0945,1.0942,1.0983,1.0977,1.0965,1.0945,1.0984,1.1,1.1007,1.092,1.092,1.0919,1.0919,0,0,1.0822,1.0838,1.0845,1.0854,1.0868,1.0885,1.091,1.093,1.0942,1.0956,1.0977,1.1006,1.0996,1.1007,1.1005,1.1024,1.1063,1.101,1.101,1.102,1.1111,1.112,1.1128,1.1058,1.1059,1.106,1.111,0,1.0868,1.0911,1.0909,1.095,1.097,1.0959,1.0981,1.0993,1.0997,1.1015,1.1019,1.104,1.1024,1.1031,1.1049,1.1055,1.1082,1.1051,1.1079,1.108,1.1077,1.1136,1.1146,1.1192,1.1116,1.1118,1.1118,0,1.0927,1.0942,1.0985,1.0997,1.1006,1.1025,1.1044,1.1061,1.1074,1.1076,1.1089,1.1084,1.111,1.1089,1.1126,1.1105,1.1117,1.1121,1.1123,1.1126,1.1102,1.1142,1.1207,1.1214,1.1128,1.1127,1.1127,0,1.0966,1.0998,1.1028,1.1035,1.105,1.1064,1.1071,1.1083,1.1095,1.1112,1.112,1.1139,1.115,1.1166,1.1166,1.1151,1.1204,1.1183,1.1207,1.1207,1.1219,1.1218,1.1288,1.1225,1.1225,1.1225,1.1225,0,1.1018,1.1045,1.1046,1.1065,1.1095,1.1092,1.1122,1.1128,1.1139,1.1159,1.1151,1.117,1.117,1.119,1.119,1.1222,1.1226,1.1229,1.1229,1.123,1.123,1.1238,1.1235,1.1227,1.1227,1.1226,1.1226,0,1.1067,1.1069,1.1101,1.1112,1.1116,1.1138,1.1148,1.1166,1.1169,1.1194,1.12,1.1206,1.1229,1.1231,1.1257,1.1258,1.1296,1.1292,1.1291,1.1291,1.1315,1.1313,1.1393,1.1403,1.1334,1.1334,1.1335,0,1.11,1.1121,1.1134,1.1147,1.1155,1.1175,1.1188,1.1187,1.12,1.1217,1.1234,1.1256,1.1273,1.1311,1.1317,1.1338,1.1335,1.1362,1.1338,1.1339,1.1337,1.1336,1.1338,1.1366,1.1367,1.1368,1.1368,0,1.1159,1.1159,1.1177,1.1196,1.1211,1.1226,1.124,1.1251,1.1252,1.1268,1.1291,1.1305,1.1332,1.1354,1.1375,1.1383,1.1376,1.1375,1.1382,1.1384,1.1383,1.1384,1.1304,1.1374,1.1373,1.1373,1.1372,1.1372,1.1202,1.122,1.1232,1.1253,1.1264,1.1277,1.1295,1.13,1.1319,1.1341,1.134,1.1366,1.138,1.1406,1.1416,1.1437,1.1428,1.1437,1.144,1.1443,1.1446,1.1379,1.144,1.144,1.144,1.144,1.144,0,1.126,1.1268,1.1287,1.1307,1.1324,1.1316,1.1331,1.1346,1.1369,1.1382,1.1399,1.1427,1.1449,1.1457,1.1479,1.1494,1.1492,1.15,1.1499,1.1501,1.1452,1.1444,1.1502,1.1502,1.1502,1.1502,1.1501,1.1501,1.1293,1.1324,1.1325,1.1361,1.1369,1.1394,1.1404,1.1417,1.1427,1.1458,1.1476,1.1481,1.1493,1.1516,1.1536,1.1538,1.1546,1.1556,1.1557,1.1511,1.1505,1.1499,1.1491,1.1558,1.1558,1.1605,1.1605,1.1606]},{"header":{"parameterUnit":"m.s-1","parameterCategory":1,"la1":30.2991,"la2":30.254,"lo1":-89.0895,"lo2":-89.0444,"dy":0.0017,"dx":0.0017,"nx":28,"ny":28,"refTime":"2025-12-26T09:00:00:Z","depth":0,"parameterNumber":3,"parameterNumberName":"V-component_of_WINDS"},"data":[0,0,0,0,0,0,0,0,0,0,0,0,0,0,0,0,0,0,0,0,0,0,0,0,0,0,0,0,0,0,0,0,0,0,0,0,0,0,0,0,0,0,0,0,0,0,0,0,0,0,0,0,0,0,0,0,0,0,2.2962,2.2963,0,2.3063,2.3064,2.3066,2.3093,2.3092,2.3092,2.3091,2.3195,2.3198,2.3201,0,0,0,0,0,0,0,0,0,0,0,0,0,2.2793,2.2796,2.2962,2.2963,2.2965,2.3063,2.3064,2.3066,2.3093,2.3092,2.3091,2.3091,2.3194,2.3198,2.3202,0,0,0,0,0,0,0,0,0,0,0,0,0,2.2878,2.2797,2.2962,2.299,2.2994,2.3063,2.3065,2.3066,2.3093,2.3092,2.3091,2.309,2.3192,2.3197,2.3202,2.3251,0,0,2.3217,2.322,0,0,0,0,0,0,0,0,2.2873,2.2884,2.2985,2.2988,2.2992,2.3064,2.3043,2.3128,2.3093,2.3055,2.3091,2.309,2.3152,2.316,2.3181,2.3256,2.326,2.3218,2.3221,2.3223,2.3224,0,0,0,0,0,0,0,2.2867,2.288,2.3002,2.2986,2.2991,2.2998,2.3009,2.3059,2.3108,2.3059,2.3061,2.3072,2.3154,2.3176,2.3184,2.3262,2.3218,2.3222,2.3225,2.3227,2.3381,2.3382,0,0,0,0,0,0,2.2856,2.2875,2.2999,2.3005,2.2929,2.3002,2.3014,2.3042,2.3107,2.3116,2.3073,2.3073,2.3168,2.3178,2.3188,2.325,2.3223,2.3228,2.3231,2.338,2.3382,2.3383,0,0,0,0,0,0,2.2852,2.2867,2.2995,2.2941,2.2957,2.3005,2.3037,2.3045,2.3067,2.3118,2.3127,2.3087,2.3168,2.3181,2.3235,2.3253,2.323,2.3234,2.3379,2.3381,2.3382,2.3373,0,0,0,0,0,0,2.2848,2.2866,2.2884,2.2941,2.296,2.304,2.3038,2.3047,2.3076,2.3077,2.3133,2.3142,2.3168,2.3227,2.324,2.326,2.3238,2.3378,2.338,2.3382,2.3372,2.3374,2.3376,0,0,0,0,0,2.2841,2.2878,2.2885,2.29,2.2985,2.3041,2.3053,2.3082,2.3077,2.3097,2.3129,2.314,2.3249,2.3233,2.3247,2.3269,2.3377,2.3379,2.3382,2.3371,2.3374,2.3376,0,0,0,0,0,0,2.2823,2.2886,2.2895,2.295,2.299,2.3046,2.3071,2.3084,2.3126,2.3126,2.3161,2.3173,2.3225,2.3252,2.3233,2.3319,2.3313,2.3318,2.33,2.3303,2.3305,2.3298,2.3242,0,0,0,0,0,2.2825,2.2865,2.2918,2.2962,2.2982,2.3023,2.3049,2.3068,2.3111,2.3128,2.3165,2.3206,2.325,2.3278,2.3321,2.3375,2.3389,2.3398,2.34,2.3401,2.3406,2.3437,2.3442,2.3391,2.3391,2.3391,0,0,2.283,2.287,2.2893,2.296,2.2993,2.3034,2.3037,2.3081,2.3112,2.3135,2.3189,2.3217,2.3265,2.332,2.3346,2.3344,2.3422,2.3404,2.3405,2.3409,2.344,2.3445,2.3449,2.3393,2.3392,2.3392,0,0,2.2861,2.2895,2.2936,2.2969,2.3019,2.3046,2.3055,2.3109,2.3129,2.3183,2.3201,2.3239,2.3313,2.3347,2.3374,2.3417,2.3429,2.343,2.3441,2.3472,2.3476,2.348,2.3496,2.3501,2.3434,2.3434,2.3434,0,2.2862,2.2925,2.2955,2.2998,2.3027,2.3049,2.309,2.3121,2.3183,2.3202,2.3199,2.3293,2.3327,2.339,2.3401,2.3422,2.3434,2.3424,2.3473,2.3477,2.3481,2.3497,2.3503,2.3434,2.3434,2.3434,2.3434,0,2.2923,2.2967,2.2993,2.3052,2.3084,2.3126,2.3163,2.3191,2.3207,2.3235,2.329,2.3331,2.3383,2.34,2.3416,2.3466,2.3463,2.3466,2.346,2.3485,2.3501,2.3507,2.3434,2.3434,2.3434,2.3434,0,0,2.2946,2.3021,2.303,2.3057,2.3114,2.3148,2.3191,2.3242,2.3266,2.3307,2.3345,2.3407,2.341,2.344,2.3461,2.3487,2.352,2.3487,2.3489,2.3492,2.3577,2.3576,2.3582,2.3527,2.3529,2.353,2.3574,0,2.2985,2.3063,2.3091,2.3155,2.3196,2.3217,2.3254,2.3293,2.332,2.3358,2.3388,2.3431,2.3432,2.345,2.3477,2.351,2.3537,2.3507,2.3563,2.3565,2.3551,2.359,2.3588,2.3628,2.358,2.3581,2.3582,0,2.3041,2.3083,2.3151,2.3203,2.3221,2.3254,2.3303,2.3339,2.3384,2.3401,2.3435,2.3454,2.35,2.349,2.3554,2.3533,2.3558,2.3577,2.3579,2.3586,2.3575,2.3599,2.3641,2.3647,2.3591,2.3591,2.359,0,2.3052,2.3126,2.3176,2.3198,2.326,2.3283,2.3309,2.3353,2.3381,2.3424,2.3443,2.349,2.3516,2.3552,2.3583,2.3573,2.3645,2.3638,2.3661,2.366,2.3676,2.3675,2.3723,2.369,2.369,2.369,2.369,0,2.3093,2.3134,2.3182,2.3213,2.3259,2.3291,2.3336,2.3364,2.3403,2.344,2.3461,2.3495,2.3533,2.3572,2.3597,2.3646,2.3658,2.3674,2.368,2.3672,2.367,2.369,2.3688,2.3691,2.3691,2.3691,2.369,0,2.3114,2.3147,2.3204,2.3257,2.3271,2.3303,2.3349,2.338,2.3407,2.3454,2.3466,2.3509,2.3557,2.3591,2.3652,2.3668,2.3722,2.3727,2.3707,2.371,2.3732,2.3729,2.3795,2.3806,2.3764,2.3764,2.3764,0,2.3138,2.317,2.3227,2.3253,2.328,2.3321,2.3351,2.3383,2.3413,2.3466,2.349,2.3539,2.358,2.3655,2.3691,2.3738,2.3746,2.3765,2.3753,2.3744,2.3747,2.3745,2.3749,2.3767,2.3768,2.3768,2.3768,0,2.3179,2.3193,2.3235,2.3282,2.3316,2.3355,2.3394,2.3414,2.3453,2.3486,2.3534,2.3566,2.3628,2.3676,2.3726,2.3754,2.3768,2.3771,2.378,2.3773,2.376,2.3768,2.3713,2.377,2.377,2.377,2.377,2.377,2.3203,2.3232,2.3277,2.3322,2.3355,2.3391,2.3422,2.3453,2.3494,2.3548,2.3564,2.3614,2.3658,2.3727,2.3755,2.3795,2.3795,2.3806,2.3809,2.3812,2.3812,2.3753,2.3805,2.3805,2.3805,2.3805,2.3805,0,2.3245,2.3274,2.3316,2.3369,2.3405,2.3414,2.3458,2.3487,2.3531,2.3571,2.361,2.3666,2.3713,2.3753,2.3802,2.3826,2.3834,2.3838,2.3837,2.3843,2.3809,2.3798,2.3831,2.3831,2.3831,2.3831,2.3831,2.3831,2.3271,2.3322,2.3342,2.3409,2.3438,2.3488,2.3512,2.3545,2.3577,2.3638,2.3677,2.3703,2.3743,2.3794,2.3838,2.3848,2.3866,2.3869,2.3881,2.3849,2.3846,2.3843,2.3832,2.3872,2.3872,2.3912,2.3912,2.3912]}]]